Date,TemperatureHighF,TemperatureAvgF,TemperatureLowF,DewpointHighF,DewpointAvgF,DewpointLowF,HumidityHigh,HumidityAvg,HumidityLow,PressureMaxIn,PressureMinIn,WindSpeedMaxMPH,WindSpeedAvgMPH,GustSpeedMaxMPH,PrecipitationSumIn
2014-1-1,41.2,35.5,29.6,26.0,24.2,22.0,75,64,52,30.75,30.55,16,4,25,0.01
2014-1-2,47.8,34.0,26.6,33.0,25.2,22.0,83,71,56,30.71,30.16,13,2,20,0.00
2014-1-3,49.6,36.1,29.0,36.0,23.3,-99.9,87,63,44,30.37,30.01,22,-1,40,0.01
2014-1-4,29.5,22.7,25.0,24.0,-2.8,-99.9,88,55,44,30.70,30.37,23,-162,31,0.01
2014-1-5,27.4,17.4,10.5,18.0,6.1,0.0,74,62,52,31.08,30.70,28,11,29,0.00
2014-1-6,20.5,12.7,7.4,11.0,0.9,-99.9,86,71,62,31.11,30.75,8,-53,9,0.00
2014-1-7,24.7,19.9,16.0,18.0,14.0,10.0,82,78,71,30.74,30.54,11,1,12,0.00
2014-1-8,37.8,28.0,22.0,30.0,22.5,17.0,91,80,69,30.54,30.17,17,2,30,0.00
2014-1-9,38.0,34.1,30.7,32.0,27.5,20.0,94,78,57,30.26,30.08,26,8,33,0.07
2014-1-10,38.5,34.0,29.2,32.0,29.1,21.0,93,82,66,30.32,30.07,30,5,35,0.01
2014-1-11,42.0,38.5,35.1,38.0,30.7,-99.9,91,77,66,30.27,29.73,31,-6,57,0.34
2014-1-12,35.9,35.4,34.4,24.0,23.4,23.0,66,61,59,30.37,30.36,8,4,11,0.00
2014-1-13,45.8,42.5,40.2,32.0,29.1,26.0,69,60,46,30.72,30.41,27,14,40,0.00
2014-1-14,45.4,41.0,35.3,32.0,29.3,28.0,74,63,54,30.91,30.71,23,8,35,0.00
2014-1-15,47.3,40.1,33.4,28.0,24.0,21.0,73,54,39,30.81,30.71,23,6,28,0.00
2014-1-16,45.2,34.4,30.0,26.0,15.3,-99.9,74,55,44,30.87,30.76,8,-61,11,0.00
2014-1-17,41.4,32.3,25.1,26.0,18.6,-99.9,81,64,50,30.76,30.65,7,-32,8,0.00
2014-1-18,40.7,31.0,25.2,26.0,20.1,-99.9,85,69,46,30.78,30.56,5,-20,7,0.00
2014-1-19,47.5,34.4,22.4,28.0,23.5,20.0,90,67,40,30.64,30.48,17,4,22,0.00
2014-1-20,41.7,34.6,27.7,28.0,25.2,23.0,82,69,56,30.88,30.64,14,5,19,0.00
2014-1-21,40.1,29.8,20.6,27.0,23.3,19.0,93,78,57,30.86,30.69,7,1,8,0.00
2014-1-22,36.8,30.1,25.7,31.0,26.2,23.0,91,85,77,30.82,30.60,19,5,21,0.00
2014-1-23,41.0,32.2,25.5,30.0,26.8,23.0,93,81,59,30.95,30.82,9,2,12,0.00
2014-1-24,40.1,28.1,22.5,27.0,14.8,-99.9,93,73,55,30.98,30.84,6,-74,7,0.00
2014-1-25,35.7,26.8,19.3,28.0,23.0,18.0,94,86,66,30.89,30.64,5,1,8,0.00
2014-1-26,33.0,26.3,21.5,27.0,21.0,13.0,93,81,57,30.67,30.59,10,2,12,0.00
2014-1-27,32.7,23.4,19.4,16.0,-4.2,-99.9,72,44,33,30.80,30.66,14,-131,16,0.00
2014-1-28,29.1,22.1,12.0,22.0,11.4,8.0,84,65,45,30.82,30.55,12,2,18,0.00
2014-1-29,38.4,30.4,23.6,34.0,27.2,18.0,95,88,71,30.55,29.97,20,4,26,0.12
2014-1-30,34.3,23.4,17.2,32.0,21.3,15.0,95,91,78,30.31,29.98,21,9,22,0.15
2014-1-31,24.2,16.2,15.5,21.0,-2.2,-99.9,93,76,82,30.45,30.31,18,-163,22,0.01
2014-2-1,27.4,18.1,15.0,17.0,2.3,-99.9,86,70,63,30.60,30.45,23,-99,25,0.01
2014-2-2,22.7,18.7,14.5,17.0,14.5,11.0,91,83,76,30.57,30.32,7,2,9,0.00
2014-2-3,21.3,11.8,6.5,18.0,-18.7,-99.9,93,54,56,30.73,30.27,19,-238,28,0.00
2014-2-4,6.5,2.9,-2.6,-4.0,-9.5,-12.0,65,57,46,31.12,30.73,15,4,21,0.00
2014-2-5,1.8,-3.8,-8.4,-12.0,-18.4,-99.9,68,54,44,31.27,31.13,15,-16,19,0.00
2014-2-6,1.0,-7.3,-15.4,-14.0,-22.3,-99.9,73,59,49,31.16,30.66,5,-55,6,0.00
2014-2-7,10.2,0.3,-7.6,2.0,-5.2,-15.0,83,77,64,30.65,30.50,7,1,9,0.00
2014-2-8,16.8,10.6,2.8,10.0,6.0,-1.0,87,82,74,30.70,30.45,23,8,30,0.00
2014-2-9,16.2,10.1,9.6,13.0,-14.0,-99.9,91,69,83,30.68,30.50,10,-217,12,0.00
2014-2-10,31.9,19.3,13.6,28.0,15.9,11.0,91,87,78,30.75,30.50,9,2,11,0.00
2014-2-11,40.1,35.4,30.2,33.0,24.1,15.0,93,66,39,30.50,30.32,24,8,39,0.01
2014-2-12,46.2,38.9,28.8,36.0,28.9,19.0,89,69,41,30.39,29.98,30,13,36,0.01
2014-2-13,43.2,37.8,32.1,36.0,28.5,22.0,89,70,44,30.40,29.99,24,10,41,0.09
2014-2-14,42.0,34.4,30.2,35.0,25.9,-99.9,93,74,54,30.40,30.10,24,-2,43,0.04
2014-2-15,38.9,34.6,29.3,35.0,29.2,25.0,94,81,64,30.37,29.93,21,6,28,0.20
2014-2-16,43.2,35.5,29.6,37.0,25.6,18.0,92,68,49,30.39,29.86,40,12,50,0.01
2014-2-17,43.6,37.5,32.1,32.0,24.7,18.0,91,61,47,30.35,29.98,37,13,42,0.08
2014-2-18,42.4,35.4,29.9,33.0,27.5,23.0,89,74,54,30.36,29.91,44,8,46,0.05
2014-2-19,39.3,30.7,26.6,32.0,20.6,11.0,89,67,41,30.43,29.95,44,9,44,0.01
2014-2-20,33.9,29.1,24.9,29.0,23.6,17.0,94,80,64,30.52,30.25,36,9,47,0.00
2014-2-21,29.6,27.6,23.0,28.0,23.3,12.0,94,84,58,30.46,30.30,29,11,38,0.05
2014-2-22,22.9,18.9,12.5,20.0,15.3,9.0,93,86,68,30.55,30.47,12,4,14,0.03
2014-2-23,19.8,16.9,17.4,18.0,5.8,-99.9,92,83,91,30.55,30.44,11,-88,12,0.00
2014-2-24,17.2,13.6,14.0,15.0,-3.1,-99.9,92,77,85,30.77,30.46,22,-138,25,0.00
2014-2-25,24.3,15.3,11.7,17.0,-3.1,-99.9,91,71,72,30.93,30.72,28,-141,28,0.00
2014-2-26,22.9,12.9,7.8,16.0,2.2,-99.9,91,79,75,30.83,30.49,6,-72,7,0.01
2014-2-27,22.5,16.7,10.0,21.0,14.3,8.0,94,90,84,30.48,30.18,7,1,8,0.00
2014-2-28,25.8,15.5,4.4,25.0,5.3,-99.9,95,81,71,30.51,30.19,25,-66,32,0.00
2014-3-1,6.5,2.6,-0.3,0.0,-4.6,-7.0,86,72,59,30.67,30.51,11,3,16,0.00
2014-3-2,14.3,8.8,2.9,12.0,4.7,-4.0,91,83,71,30.66,30.44,8,1,10,0.10
2014-3-3,42.0,30.7,14.5,37.0,27.0,12.0,96,86,69,30.48,30.23,22,6,25,0.44
2014-3-4,44.3,39.0,35.9,34.0,31.1,-99.9,91,76,60,30.34,30.24,28,6,34,0.04
2014-3-5,46.2,39.4,34.3,38.0,28.8,-99.9,93,74,57,30.34,30.00,32,-30,35,0.07
2014-3-6,44.8,41.0,36.1,39.0,36.2,33.0,93,83,73,30.27,29.89,27,10,32,0.29
2014-3-7,45.4,40.2,35.3,35.0,32.5,30.0,94,75,60,30.64,30.27,13,5,16,0.00
2014-3-8,50.7,40.2,29.6,34.0,28.8,26.0,86,66,42,30.65,30.35,11,3,21,0.00
2014-3-9,54.6,47.9,41.0,42.0,38.5,31.0,92,71,50,30.35,30.16,30,13,39,0.04
2014-3-10,43.7,38.7,35.7,40.0,34.5,-99.9,96,87,59,30.41,30.12,27,-3,30,0.16
2014-3-11,45.9,39.2,34.7,31.0,27.5,22.0,83,64,42,30.80,30.42,22,11,28,0.16
2014-3-12,49.3,37.6,28.6,26.0,23.5,21.0,82,59,33,30.83,30.48,11,3,15,0.00
2014-3-13,53.4,40.3,25.4,31.0,24.9,22.0,87,57,32,30.47,30.32,13,4,22,0.00
2014-3-14,47.3,38.2,30.7,35.0,26.9,22.0,88,64,51,30.46,30.22,32,5,46,0.01
2014-3-15,47.1,40.6,37.0,29.0,25.1,21.0,68,55,37,30.74,30.46,24,8,40,0.01
2014-3-16,60.2,45.4,31.0,30.0,20.8,7.0,77,46,12,30.67,29.99,32,7,45,0.00
2014-3-17,46.2,40.3,33.4,33.0,24.8,17.0,74,55,39,30.38,29.77,33,12,41,0.01
2014-3-18,37.4,32.8,28.5,28.0,21.9,16.0,89,66,45,30.59,30.38,25,8,31,0.01
2014-3-19,47.4,35.0,25.6,32.0,19.9,17.0,77,56,35,30.57,30.27,17,6,22,0.00
2014-3-20,38.8,33.9,29.5,32.0,18.9,10.0,90,57,33,30.60,30.24,26,11,44,0.00
2014-3-21,37.5,30.6,23.7,23.0,17.5,12.0,79,60,35,30.67,30.56,17,6,22,0.00
2014-3-22,41.0,30.9,21.2,24.0,18.0,14.0,86,61,37,30.77,30.53,14,6,18,0.00
2014-3-23,45.3,36.3,29.6,30.0,22.5,16.0,94,61,31,30.60,30.49,18,5,22,0.00
2014-3-24,48.8,38.1,27.0,22.0,18.5,13.0,70,48,25,30.70,30.46,12,3,17,0.00
2014-3-25,57.4,41.5,28.0,28.0,22.7,16.0,76,51,20,30.46,29.86,22,5,25,0.00
2014-3-26,48.5,42.5,38.5,34.0,30.1,25.0,78,63,41,29.89,29.80,21,7,25,0.00
2014-3-27,43.8,36.4,30.6,35.0,31.0,27.0,95,81,64,30.20,29.86,16,3,21,0.06
2014-3-28,50.3,41.1,32.3,37.0,31.5,24.0,94,72,38,30.34,30.14,32,10,42,0.05
2014-3-29,44.7,40.8,36.6,38.0,34.3,29.0,95,78,59,30.16,30.05,29,9,34,0.30
2014-3-30,45.1,38.2,32.8,32.0,29.8,25.0,91,73,49,30.32,30.12,28,7,32,0.01
2014-3-31,47.2,38.1,30.9,32.0,27.4,20.0,95,69,35,30.37,30.16,18,4,20,0.00
2014-4-1,50.8,39.5,28.8,31.0,26.9,23.0,87,64,35,30.16,29.99,19,4,21,0.00
2014-4-2,46.3,38.7,30.7,29.0,26.5,23.0,80,63,40,30.30,30.05,23,8,32,0.00
2014-4-3,53.7,41.3,30.6,28.0,21.3,-99.9,79,51,20,30.40,30.23,21,-7,24,0.00
2014-4-4,50.3,41.9,35.8,34.0,25.9,19.0,78,54,38,30.23,30.08,23,5,33,0.00
2014-4-5,48.0,39.8,34.5,32.0,26.5,-99.9,87,64,39,30.32,30.22,17,-16,22,0.00
2014-4-6,50.0,44.2,39.6,37.0,31.5,25.0,86,62,39,30.51,30.27,36,11,43,0.02
2014-4-7,60.2,49.7,40.8,36.0,33.0,30.0,71,54,37,30.59,30.47,14,4,24,0.02
2014-4-8,68.5,50.7,37.6,39.0,29.3,-99.9,85,52,22,30.49,30.18,35,-27,38,0.00
2014-4-9,54.9,50.7,43.1,40.0,31.8,21.0,77,50,33,30.31,30.10,29,11,42,0.00
2014-4-10,57.5,47.0,35.5,28.0,23.0,17.0,64,41,21,30.39,30.30,18,6,24,0.00
2014-4-11,60.5,46.9,32.2,31.0,25.3,-99.9,77,46,28,30.33,30.08,22,-4,28,0.00
2014-4-12,51.2,41.3,31.4,34.0,27.6,19.0,88,60,32,30.47,30.10,36,9,46,0.02
2014-4-13,43.3,33.7,24.7,18.0,11.1,-99.9,64,42,20,30.76,30.48,20,-3,26,0.02
2014-4-14,60.9,42.3,24.7,16.0,10.8,0.0,63,33,9,30.76,30.27,16,3,18,0.00
2014-4-15,52.9,45.5,40.6,31.0,24.1,14.0,62,44,21,30.26,30.09,25,10,37,0.00
2014-4-16,48.5,42.0,33.3,32.0,27.8,24.0,81,59,43,30.35,30.26,16,5,23,0.00
2014-4-17,55.8,46.7,40.1,42.0,34.0,29.0,91,63,45,30.31,30.00,22,6,24,0.00
2014-4-18,49.2,43.6,37.9,42.0,24.6,-99.9,93,55,27,30.33,30.01,38,0,49,0.00
2014-4-19,66.0,45.5,26.8,33.0,18.5,-99.9,72,41,16,30.37,30.10,32,-14,40,0.00
2014-4-20,57.5,48.2,41.6,34.0,22.5,13.0,68,38,17,30.53,30.30,31,12,50,0.00
2014-4-21,68.5,51.4,33.3,30.0,24.4,19.0,70,40,16,30.56,30.08,22,6,27,0.00
2014-4-22,55.4,46.9,40.7,41.0,31.5,23.0,78,57,33,30.07,29.84,31,10,38,0.01
2014-4-23,47.9,39.3,36.2,34.0,26.4,-99.9,88,63,33,30.23,30.03,33,1,38,0.01
2014-4-24,52.6,41.5,34.5,40.0,35.7,32.0,94,81,47,30.25,30.14,19,5,24,0.02
2014-4-25,55.9,43.9,33.3,41.0,30.2,-99.9,91,66,39,30.20,29.88,21,-26,28,0.02
2014-4-26,46.0,42.3,38.7,40.0,33.9,26.0,94,74,52,30.04,29.83,30,14,36,0.04
2014-4-27,47.7,40.1,33.0,33.0,27.7,22.0,80,63,39,30.26,30.03,23,7,30,0.00
2014-4-28,47.8,39.4,32.7,33.0,25.4,-99.9,92,62,39,30.79,30.26,27,-2,35,0.01
2014-4-29,57.4,44.1,30.4,28.0,23.8,12.0,77,49,17,31.01,30.80,16,6,20,0.01
2014-4-30,66.4,48.2,32.9,30.0,20.1,-99.9,69,40,18,30.94,30.61,17,-38,21,0.00
2014-5-1,75.0,58.4,40.3,33.0,30.8,28.0,66,38,21,30.62,30.25,10,2,15,0.00
2014-5-2,72.8,61.6,46.3,37.0,33.1,28.0,62,36,20,30.25,30.02,18,6,29,0.00
2014-5-3,64.3,55.4,47.7,45.0,38.9,36.0,89,56,35,30.03,29.90,29,10,36,0.00
2014-5-4,55.8,47.6,42.1,43.0,36.4,-99.9,96,70,39,30.13,29.98,28,0,32,0.11
2014-5-5,53.5,46.8,40.8,39.0,35.0,30.0,87,65,41,30.18,30.11,27,9,45,0.11
2014-5-6,52.8,45.0,38.4,38.0,33.6,29.0,83,66,42,30.19,30.08,27,10,33,0.00
2014-5-7,52.2,43.4,35.6,36.0,30.4,28.0,87,62,43,30.25,30.17,18,8,24,0.00
2014-5-8,62.3,49.2,35.6,35.0,29.5,23.0,83,52,22,30.25,29.96,16,4,22,0.00
2014-5-9,54.1,47.5,42.4,42.0,31.5,-99.9,87,57,40,30.17,29.91,25,-2,41,0.01
2014-5-10,51.1,44.5,38.6,36.0,33.7,30.0,87,67,48,30.40,30.16,20,8,24,0.03
2014-5-11,43.7,39.0,31.7,38.0,34.4,31.0,96,84,66,30.75,30.40,25,11,26,0.03
2014-5-12,56.0,43.5,27.9,31.0,24.8,18.0,92,53,23,30.87,30.73,13,6,17,0.03
2014-5-13,63.8,49.7,32.3,30.0,25.1,12.0,77,43,14,30.84,30.64,14,3,18,0.00
2014-5-14,70.3,55.8,41.6,37.0,31.5,27.0,66,42,26,30.71,30.45,12,2,16,0.00
2014-5-15,76.4,62.4,47.9,41.0,35.6,27.0,62,40,17,30.48,30.21,16,5,20,0.00
2014-5-16,68.9,57.6,52.5,47.0,35.9,-99.9,76,50,38,30.27,30.07,21,-25,33,0.08
2014-5-17,71.7,58.8,46.0,47.0,40.2,31.0,90,56,27,30.17,29.95,21,7,25,0.08
2014-5-18,57.8,49.6,43.2,43.0,38.0,34.0,85,65,41,30.09,29.93,27,10,32,0.01
2014-5-19,59.4,51.3,44.4,41.0,37.7,33.0,84,62,40,30.25,30.09,19,8,25,0.01
2014-5-20,67.7,52.8,39.7,39.0,33.1,-99.9,83,53,23,30.35,30.19,19,-3,23,0.00
2014-5-21,73.6,59.5,43.0,40.0,35.2,31.0,75,44,21,30.32,30.15,14,7,22,0.00
2014-5-22,79.9,62.7,45.1,41.0,36.4,-99.9,78,42,16,30.32,30.16,18,-6,22,0.00
2014-5-23,81.3,64.5,48.8,45.0,36.9,-99.9,68,41,17,30.27,30.00,27,-4,31,0.00
2014-5-24,65.2,60.0,54.0,51.0,46.3,42.0,88,62,47,30.25,30.12,29,10,34,0.00
2014-5-25,73.3,60.0,45.8,45.0,41.2,35.0,85,54,25,30.32,30.08,18,5,26,0.00
2014-5-26,63.6,58.8,53.3,47.0,42.1,39.0,76,55,43,30.28,30.12,25,15,32,0.01
2014-5-27,72.1,57.1,42.4,44.0,41.0,38.0,85,58,30,30.36,30.09,29,9,35,0.01
2014-5-28,64.1,55.3,47.3,48.0,42.9,31.0,77,64,48,30.31,30.02,38,18,45,0.00
2014-5-29,63.6,52.0,39.7,35.0,30.2,26.0,79,46,25,30.44,30.31,17,6,26,0.00
2014-5-30,71.7,56.0,38.4,36.0,29.7,16.0,75,43,12,30.46,30.16,18,6,20,0.00
2014-5-31,72.1,61.1,53.1,45.0,33.6,-99.9,75,40,26,30.20,30.01,26,11,32,0.18
2014-6-1,68.9,57.8,47.0,48.0,42.9,36.0,94,62,32,30.24,30.17,24,5,34,0.19
2014-6-2,76.0,61.8,45.8,44.0,38.0,30.0,79,47,19,30.24,30.00,11,3,15,0.00
2014-6-3,70.4,61.1,53.9,48.0,42.5,36.0,65,51,39,30.15,29.96,38,12,48,0.01
2014-6-4,73.2,60.1,46.1,46.0,40.3,34.0,90,53,25,30.24,30.12,24,5,29,0.01
2014-6-5,70.8,61.4,49.9,40.0,33.9,29.0,59,38,22,30.18,30.11,19,6,26,0.00
2014-6-6,67.3,57.8,43.4,36.0,29.5,22.0,65,37,20,30.27,30.18,21,9,29,0.00
2014-6-7,69.0,57.3,44.5,36.0,30.4,-99.9,60,39,23,30.34,30.23,14,-5,21,0.00
2014-6-8,73.5,62.2,47.2,40.0,36.2,33.0,64,40,23,30.36,30.18,15,6,16,0.00
2014-6-9,71.8,63.2,51.9,42.0,37.9,33.0,67,41,25,30.19,30.05,22,8,28,0.00
2014-6-10,69.5,60.4,47.8,40.0,34.1,23.0,62,40,18,30.16,30.01,23,8,30,0.00
2014-6-11,70.3,58.7,44.8,39.0,35.7,31.0,73,45,23,30.25,30.13,16,5,19,0.00
2014-6-12,77.5,62.5,48.2,49.0,41.1,35.0,73,48,29,30.15,29.77,27,10,33,0.02
2014-6-13,58.2,51.4,49.1,49.0,31.8,-99.9,91,61,44,30.16,29.89,27,5,35,0.09
2014-6-14,55.1,50.0,43.9,41.0,38.6,36.0,84,66,51,30.23,30.15,20,7,27,0.00
2014-6-15,64.2,53.9,43.3,43.0,39.6,36.0,83,60,38,30.21,29.94,18,6,25,0.00
2014-6-16,52.8,48.2,43.8,46.0,39.9,-99.9,93,79,68,30.09,29.94,23,-4,27,0.08
2014-6-17,50.4,44.0,39.8,42.0,38.5,37.0,95,81,63,30.29,30.07,25,12,28,0.25
2014-6-18,50.2,40.9,38.8,44.0,29.5,-99.9,96,78,62,30.31,30.21,16,-70,24,0.09
2014-6-19,72.5,59.3,44.8,50.0,41.8,-99.9,96,59,29,30.30,30.17,24,-5,28,0.11
2014-6-20,75.2,61.8,50.2,51.0,44.5,-99.9,82,57,34,30.21,30.04,26,-4,30,0.01
2014-6-21,73.3,63.2,51.2,44.0,39.1,35.0,70,44,25,30.23,30.09,18,10,30,0.01
2014-6-22,75.6,59.9,48.5,46.0,38.9,-99.9,75,50,26,30.26,30.13,30,-14,36,0.00
2014-6-23,79.7,63.5,48.8,49.0,42.4,-99.9,85,53,18,30.31,30.12,11,-8,15,0.00
2014-6-24,77.4,67.6,56.6,51.0,47.0,44.0,70,49,38,30.16,30.01,21,7,29,0.00
2014-6-25,74.3,64.5,56.1,51.0,44.7,-99.9,74,52,33,30.15,29.94,17,-3,23,0.00
2014-6-26,64.3,59.0,54.3,56.0,53.1,50.0,96,81,67,30.00,29.89,24,7,27,0.08
2014-6-27,64.3,58.7,54.1,54.0,50.4,46.0,94,75,52,30.04,29.97,23,6,30,0.01
2014-6-28,63.1,57.8,52.1,49.0,44.6,40.0,81,63,45,30.19,30.03,23,9,26,0.01
2014-6-29,62.7,56.2,49.0,47.0,42.6,38.0,84,62,41,30.35,30.19,26,7,34,0.00
2014-6-30,73.7,60.3,45.7,45.0,42.0,39.0,83,54,30,30.45,30.36,12,4,18,0.00
2014-7-1,82.5,66.2,49.5,48.0,42.8,34.0,79,48,18,30.41,30.14,13,4,17,0.00
2014-7-2,82.7,49.3,56.1,51.0,5.5,-99.9,67,34,24,30.17,29.98,18,-272,23,0.00
2014-7-3,82.3,42.4,61.2,54.0,-11.7,-99.9,69,27,30,30.11,29.94,20,-404,23,0.00
2014-7-4,85.4,73.7,60.7,52.0,46.5,39.0,63,40,23,30.14,30.00,21,9,25,0.00
2014-7-5,85.3,65.6,60.8,48.0,25.9,-99.9,62,30,17,30.23,30.05,20,-97,28,0.00
2014-7-6,83.7,50.4,58.5,47.0,2.6,-99.9,50,27,22,30.30,30.12,12,-270,17,0.00
2014-7-7,81.8,48.1,60.5,51.0,-3.2,-99.9,56,26,29,30.28,30.12,17,-333,21,0.00
2014-7-8,80.9,37.0,60.0,53.0,-17.6,-99.9,69,30,36,30.21,30.04,13,-450,17,0.00
2014-7-9,85.5,66.8,59.6,51.0,34.9,-99.9,69,41,27,30.14,29.96,17,-81,23,0.00
2014-7-10,90.2,60.4,61.9,54.0,38.4,28.0,68,35,11,30.04,29.90,21,6,25,0.00
2014-7-11,85.5,65.5,58.0,53.0,39.4,33.0,53,33,22,30.18,30.01,22,10,27,0.00
2014-7-12,87.3,53.9,58.4,51.0,35.0,39.0,62,34,19,30.32,30.19,15,6,19,0.00
2014-7-13,80.6,37.0,61.4,49.0,24.5,43.0,56,24,31,30.35,30.20,14,2,16,0.00
2014-7-14,85.6,57.9,63.5,58.0,39.6,44.0,68,35,28,30.29,30.08,35,8,38,0.04
2014-7-15,78.2,66.3,59.1,61.0,58.2,55.0,92,76,48,30.23,30.14,21,4,28,0.34
2014-7-16,85.1,68.8,56.5,60.0,55.2,51.0,94,64,36,30.26,30.05,15,3,15,0.00
2014-7-17,90.4,61.9,61.8,56.0,42.5,37.0,73,40,15,30.07,29.86,15,4,23,0.00
2014-7-18,77.3,66.1,60.2,50.0,42.4,37.0,64,40,29,30.09,29.96,20,7,24,0.00
2014-7-19,82.5,68.7,53.2,50.0,44.6,38.0,65,42,31,30.13,29.98,23,5,29,0.00
2014-7-20,83.7,69.3,64.5,54.0,47.1,41.0,60,43,22,30.01,29.86,33,10,38,0.00
2014-7-21,79.3,67.1,57.5,58.0,45.8,25.0,93,52,16,30.21,29.93,27,13,30,0.01
2014-7-22,82.7,57.7,56.1,51.0,36.5,35.0,61,35,29,30.32,30.19,28,8,35,0.00
2014-7-23,86.1,69.5,58.3,58.0,50.6,43.0,93,53,24,30.37,29.95,30,11,47,0.10
2014-7-24,71.0,62.3,54.0,53.0,40.7,32.0,65,47,27,30.30,30.02,37,19,43,0.00
2014-7-25,75.2,62.0,47.9,42.0,39.3,36.0,72,46,25,30.34,30.20,20,7,27,0.00
2014-7-26,81.3,66.6,49.8,43.0,39.6,36.0,70,41,20,30.40,30.27,13,6,16,0.00
2014-7-27,87.3,61.2,53.0,44.0,35.6,35.0,61,34,16,30.43,30.22,22,5,26,0.00
2014-7-28,87.8,47.2,58.8,49.0,29.7,40.0,67,28,19,30.34,30.17,17,4,22,0.00
2014-7-29,91.8,49.9,63.0,50.0,29.1,22.0,58,25,8,30.32,30.12,20,3,24,0.00
2014-7-30,89.0,30.8,63.3,49.0,17.8,36.0,48,14,16,30.25,30.15,12,1,17,0.00
2014-7-31,90.6,59.9,60.8,50.0,36.7,36.0,58,31,15,30.30,30.12,16,3,23,0.00
2014-8-1,91.1,70.5,59.4,49.0,42.5,39.0,59,35,16,30.27,30.11,22,5,31,0.05
2014-8-2,84.4,72.2,59.8,54.0,48.4,45.0,68,44,27,30.25,30.11,14,4,20,0.00
2014-8-3,83.2,57.0,62.4,54.0,39.0,41.0,71,37,25,30.25,30.09,22,6,26,0.00
2014-8-4,85.2,71.4,60.4,53.0,47.7,43.0,58,43,29,30.20,30.02,25,7,31,0.00
2014-8-5,85.9,48.0,57.2,53.0,36.0,43.0,82,41,22,30.19,30.05,19,2,20,0.00
2014-8-6,86.5,41.9,59.5,51.0,28.0,39.0,62,28,19,30.20,30.01,15,2,18,0.00
2014-8-7,83.0,45.6,59.5,49.0,27.7,38.0,55,25,21,30.21,30.01,18,3,25,0.00
2014-8-8,82.6,68.6,55.7,54.0,44.1,39.0,73,43,27,30.17,30.02,30,7,32,0.01
2014-8-9,83.3,68.8,54.1,54.0,47.5,39.0,87,52,24,30.33,30.18,16,4,19,0.00
2014-8-10,87.4,48.4,55.3,45.0,29.6,37.0,61,30,17,30.38,30.21,9,2,12,0.00
2014-8-11,84.2,35.9,58.0,46.0,22.2,37.0,56,22,22,30.36,30.14,9,1,10,0.00
2014-8-12,78.9,70.5,62.2,55.0,48.9,44.0,62,45,29,30.23,30.05,38,7,46,0.01
2014-8-13,85.4,65.0,58.7,60.0,51.5,46.0,94,62,25,30.20,29.99,20,4,36,0.22
2014-8-14,79.2,61.7,58.4,60.0,53.6,51.0,97,73,39,30.21,30.07,18,5,27,0.05
2014-8-15,69.9,62.1,55.0,59.0,54.7,49.0,95,78,54,30.27,30.16,20,8,22,0.03
2014-8-16,74.8,61.1,53.9,54.0,50.2,49.0,88,67,42,30.32,30.23,16,6,21,0.00
2014-8-17,81.0,67.5,53.5,53.0,51.2,49.0,86,59,33,30.32,30.18,16,4,17,0.00
2014-8-18,82.9,63.1,56.5,52.0,45.1,45.0,80,47,31,30.22,29.97,13,4,16,0.00
2014-8-19,81.6,57.3,55.4,50.0,39.4,42.0,76,42,29,29.99,29.81,45,5,52,0.00
2014-8-20,71.7,63.1,53.9,56.0,51.1,45.0,87,66,46,30.07,29.91,19,9,25,0.05
2014-8-21,71.6,59.7,52.8,54.0,49.4,46.0,91,68,40,30.20,30.07,23,9,30,0.04
2014-8-22,65.6,57.7,52.0,54.0,49.8,47.0,93,76,52,30.30,30.17,20,8,25,0.09
2014-8-23,56.0,52.8,50.0,51.0,47.6,44.0,95,82,71,30.42,30.30,21,10,24,0.08
2014-8-24,65.1,59.8,53.1,50.0,43.2,41.0,90,56,45,30.38,30.26,16,4,21,0.08
2014-8-25,71.5,60.3,49.8,46.0,42.3,40.0,75,53,37,30.34,30.17,11,3,17,0.00
2014-8-26,77.1,62.9,48.6,49.0,44.3,42.0,80,54,29,30.38,30.23,11,3,12,0.00
2014-8-27,81.2,66.3,50.9,50.0,46.3,44.0,81,52,29,30.36,30.16,12,2,14,0.00
2014-8-28,83.8,68.6,56.2,50.0,43.6,33.0,69,44,16,30.22,30.07,22,5,33,0.00
2014-8-29,83.2,68.2,52.9,47.0,41.2,33.0,70,41,17,30.18,29.92,19,6,23,0.00
2014-8-30,71.4,64.2,59.1,51.0,42.2,36.0,74,46,28,30.03,29.93,19,9,31,0.01
2014-8-31,65.3,57.5,52.2,52.0,44.9,40.0,88,65,41,30.20,30.01,21,8,26,0.02
2014-9-1,69.7,58.1,46.9,44.0,40.2,37.0,78,54,31,30.30,30.17,19,5,21,0.00
2014-9-2,77.7,60.8,45.2,43.0,39.4,34.0,80,49,21,30.21,29.85,18,6,20,0.00
2014-9-3,65.3,55.9,49.5,43.0,37.7,31.0,74,52,37,30.32,29.84,30,13,39,0.00
2014-9-4,65.6,53.5,40.7,42.0,38.7,34.0,88,61,32,30.49,30.32,22,6,23,0.00
2014-9-5,72.6,56.5,41.0,42.0,36.4,30.0,82,51,21,30.56,30.38,18,6,23,0.00
2014-9-6,78.5,60.6,44.5,37.0,33.9,23.0,69,41,14,30.50,30.20,10,3,11,0.00
2014-9-7,82.7,57.1,49.1,38.0,30.5,24.0,60,34,13,30.22,29.98,11,2,14,0.00
2014-9-8,81.1,66.0,49.0,38.0,29.1,7.0,53,29,6,30.05,29.90,20,5,27,0.00
2014-9-9,67.1,58.1,49.3,44.0,36.2,28.0,68,45,24,30.23,29.97,31,11,40,0.00
2014-9-10,59.5,44.9,40.6,42.0,35.3,28.0,87,64,31,30.65,30.23,29,9,40,0.00
2014-9-11,54.6,44.5,35.7,32.0,26.2,23.0,75,51,30,30.80,30.65,15,4,24,0.00
2014-9-12,65.4,47.6,30.1,29.0,26.0,24.0,80,48,22,30.69,30.32,26,6,32,0.00
2014-9-13,65.9,51.8,38.0,33.0,29.7,27.0,66,45,24,30.47,30.22,23,9,30,0.00
2014-9-14,72.2,55.5,38.7,37.0,32.1,30.0,70,44,23,30.37,30.23,16,5,20,0.00
2014-9-15,79.0,55.7,42.0,40.0,30.8,30.0,65,38,18,30.39,30.18,8,2,10,0.00
2014-9-16,76.8,62.3,48.3,48.0,40.2,34.0,64,45,32,30.25,30.04,10,2,11,0.00
2014-9-17,79.3,64.8,52.9,52.0,47.6,44.0,80,55,32,30.11,29.89,13,2,18,0.00
2014-9-18,77.3,66.4,55.1,51.0,45.6,41.0,69,49,31,30.00,29.86,22,7,25,0.00
2014-9-19,68.4,63.7,57.9,47.0,44.9,43.0,62,50,42,30.31,30.00,22,10,31,0.00
2014-9-20,76.9,61.3,46.3,47.0,43.3,34.0,87,56,21,30.48,30.30,18,5,20,0.00
2014-9-21,81.2,58.7,47.3,44.0,37.8,38.0,73,43,22,30.38,30.11,11,2,13,0.00
2014-9-22,81.9,67.1,53.2,47.0,43.4,41.0,65,45,24,30.17,30.05,16,3,20,0.00
2014-9-23,78.1,65.0,55.1,51.0,45.0,43.0,66,48,35,30.22,30.04,12,3,18,0.00
2014-9-24,87.8,61.6,53.4,52.0,40.7,40.0,77,42,19,30.10,29.90,27,7,32,0.00
2014-9-25,82.4,66.0,50.8,47.0,44.1,41.0,76,47,26,30.05,29.84,32,13,35,0.00
2014-9-26,67.4,58.9,51.6,48.0,43.5,38.0,85,58,37,30.26,29.99,30,13,35,0.06
2014-9-27,57.8,53.5,48.7,45.0,42.1,40.0,79,66,55,30.37,30.23,16,8,21,0.00
2014-9-28,57.6,53.2,53.1,45.0,41.2,42.0,73,61,57,30.36,30.21,22,5,27,0.02
2014-9-29,56.9,50.2,44.8,49.0,43.1,41.0,94,73,64,30.20,30.05,17,3,18,0.10
2014-9-30,56.0,50.4,44.6,49.0,41.7,35.0,93,73,49,30.25,30.04,31,8,40,0.05
2014-10-1,55.0,45.6,42.6,41.0,34.4,30.0,86,63,42,30.39,30.25,25,5,29,0.00
2014-10-2,56.6,49.6,42.0,36.0,30.4,24.0,73,50,28,30.66,30.36,23,8,30,0.00
2014-10-3,61.2,44.4,31.2,31.0,25.5,15.0,83,51,17,30.79,30.59,7,3,9,0.00
2014-10-4,70.6,54.7,38.0,41.0,34.2,27.0,70,48,31,30.60,30.36,23,6,28,0.00
2014-10-5,73.1,62.0,53.4,43.0,40.4,39.0,63,46,31,30.37,30.22,17,5,27,0.00
2014-10-6,75.1,60.0,45.8,46.0,41.1,38.0,73,50,34,30.28,30.12,21,6,28,0.00
2014-10-7,76.4,62.9,52.0,47.0,42.5,40.0,71,48,28,30.21,30.07,22,4,23,0.00
2014-10-8,71.7,59.1,46.4,44.0,40.4,37.0,77,52,32,30.19,30.10,16,4,20,0.00
2014-10-9,69.4,57.3,44.5,43.0,38.5,34.0,74,51,36,30.29,30.18,18,8,21,0.00
2014-10-10,68.4,54.8,41.3,43.0,38.8,36.0,86,55,35,30.35,30.19,12,3,16,0.00
2014-10-11,61.8,52.0,43.8,47.0,37.9,35.0,88,59,41,30.24,30.02,27,7,38,0.09
2014-10-12,52.2,47.1,42.7,41.0,36.9,31.0,94,69,47,30.51,30.18,21,7,33,0.17
2014-10-13,65.0,51.9,39.4,39.0,34.9,31.0,82,56,31,30.50,30.16,23,6,27,0.00
2014-10-14,67.6,58.3,47.8,43.0,35.1,31.0,61,43,29,30.16,29.92,27,9,31,0.00
2014-10-15,57.1,41.6,43.3,40.0,30.7,34.0,81,52,43,30.28,29.82,19,4,31,0.09
2014-10-16,56.3,46.2,42.0,40.0,35.0,32.0,83,64,42,30.45,30.30,12,5,17,0.00
2014-10-17,56.9,43.6,33.2,37.0,32.8,30.0,91,66,43,30.42,30.25,6,1,9,0.00
2014-10-18,61.4,50.3,39.9,42.0,39.0,36.0,86,66,46,30.37,30.27,15,4,17,0.00
2014-10-19,64.0,49.7,38.6,43.0,38.9,36.0,91,68,43,30.37,30.16,9,2,11,0.00
2014-10-20,68.6,52.5,39.5,42.0,38.1,35.0,87,61,34,30.20,29.94,13,3,20,0.00
2014-10-21,60.3,48.0,43.7,45.0,40.1,37.0,92,74,49,30.32,29.94,33,10,41,0.31
2014-10-22,59.2,47.2,37.8,39.0,34.8,33.0,86,62,41,30.38,30.17,26,9,30,0.00
2014-10-23,58.7,53.0,47.4,43.0,39.6,33.0,82,62,44,30.23,30.07,51,12,54,0.03
2014-10-24,49.1,44.1,43.4,44.0,39.1,37.0,96,79,69,30.43,30.24,19,5,22,0.05
2014-10-25,51.2,46.0,42.3,44.0,42.6,41.0,95,88,73,30.36,29.95,13,4,25,0.01
2014-10-26,53.1,44.5,39.9,43.0,33.4,29.0,83,64,50,30.28,29.94,38,9,46,0.00
2014-10-27,46.1,40.3,34.8,33.0,30.4,25.0,84,69,45,30.53,30.28,16,6,20,0.00
2014-10-28,49.9,37.3,28.4,38.0,29.2,25.0,91,74,45,30.57,30.43,16,3,18,0.05
2014-10-29,52.6,44.8,38.4,43.0,40.1,36.0,94,84,64,30.57,30.42,10,3,17,0.07
2014-10-30,51.8,44.0,37.3,41.0,38.4,35.0,94,81,65,30.59,30.30,9,2,12,0.00
2014-10-31,56.2,46.0,37.9,44.0,40.1,36.0,95,81,61,30.29,30.02,14,3,16,0.00
2014-11-1,47.8,41.2,35.3,42.0,37.7,34.0,95,87,74,30.04,29.81,36,8,40,0.61
2014-11-2,44.1,39.4,34.8,37.0,31.1,24.0,95,74,48,30.49,29.95,23,5,31,0.27
2014-11-3,44.2,38.4,31.5,35.0,31.0,27.0,88,74,64,30.60,30.50,14,2,18,0.00
2014-11-4,50.0,46.4,41.3,40.0,36.9,34.0,81,70,62,30.57,30.38,18,6,26,0.01
2014-11-5,52.9,46.9,42.5,42.0,39.4,38.0,88,74,58,30.64,30.51,11,3,18,0.00
2014-11-6,64.9,47.5,41.8,45.0,36.1,37.0,86,59,38,30.58,30.18,29,7,33,0.02
2014-11-7,51.0,38.6,35.1,43.0,27.8,29.0,83,51,47,30.70,30.31,30,9,35,0.01
2014-11-8,46.7,37.1,27.5,35.0,31.3,26.0,95,80,62,30.69,30.42,10,2,12,0.00
2014-11-9,56.9,41.5,34.9,42.0,35.3,31.0,94,78,51,30.41,29.88,24,7,37,0.27
2014-11-10,33.7,20.2,14.8,32.0,14.9,3.0,95,73,56,30.82,29.98,36,9,40,0.00
2014-11-11,14.3,10.7,6.9,3.0,-3.3,-9.0,65,53,47,31.19,30.83,14,6,18,0.00
2014-11-12,13.9,7.4,0.8,2.0,-1.7,-6.0,81,67,53,31.22,31.04,15,3,22,0.00
2014-11-13,13.4,6.6,0.2,4.0,0.6,-4.0,86,75,64,31.04,30.67,7,1,8,0.00
2014-11-14,18.0,13.2,7.2,12.0,7.6,1.0,85,78,57,30.79,30.59,17,8,19,0.00
2014-11-15,19.0,10.2,3.2,4.0,1.5,-1.0,81,66,49,31.11,30.80,11,3,12,0.00
2014-11-16,25.6,13.9,5.7,10.0,5.9,1.0,85,71,53,31.23,31.11,8,1,9,0.00
2014-11-17,25.1,15.4,6.3,14.0,9.3,3.0,88,77,62,31.14,30.94,6,1,7,0.00
2014-11-18,24.7,17.9,10.4,19.0,13.5,8.0,90,81,75,30.95,30.74,5,1,7,0.00
2014-11-19,29.3,22.9,15.6,22.0,18.2,13.0,91,82,72,30.75,30.53,3,0,4,0.00
2014-11-20,31.4,26.4,21.2,26.0,22.3,19.0,91,84,73,30.54,30.45,5,0,8,0.00
2014-11-21,41.1,32.8,27.2,35.0,27.0,24.0,90,79,66,30.45,29.92,25,3,31,0.02
2014-11-22,42.5,38.3,34.1,37.0,29.8,22.0,91,72,44,30.20,29.80,30,12,41,0.04
2014-11-23,38.9,35.4,31.7,31.0,27.4,24.0,94,73,61,30.50,30.21,28,10,38,0.00
2014-11-24,39.3,36.8,33.1,28.0,23.2,18.0,82,58,43,30.69,30.43,23,11,32,0.00
2014-11-25,37.6,33.9,30.8,34.0,31.2,28.0,96,90,71,30.57,30.34,28,9,37,0.17
2014-11-26,37.8,33.1,30.6,36.0,31.7,30.0,96,93,88,30.60,30.48,10,1,10,0.18
2014-11-27,55.0,45.9,33.4,39.0,36.4,31.0,96,70,54,30.48,30.07,29,8,35,0.02
2014-11-28,50.2,45.9,41.2,40.0,37.3,34.0,88,72,61,30.07,29.61,34,19,47,0.04
2014-11-29,43.8,32.4,15.5,38.0,25.8,10.0,93,78,43,30.33,29.52,34,15,44,0.10
2014-11-30,20.8,14.7,11.3,13.0,9.8,7.0,89,81,66,30.78,30.34,8,3,11,0.00
2014-12-1,18.0,12.1,6.2,16.0,9.2,3.0,92,87,81,30.77,30.56,9,3,12,0.00
2014-12-2,30.1,20.2,14.2,21.0,15.6,11.0,92,73,65,30.73,30.60,9,2,11,0.00
2014-12-3,24.7,18.9,14.1,20.0,15.7,12.0,92,81,78,30.60,30.43,10,2,13,0.00
2014-12-4,29.4,24.1,22.0,27.0,22.3,20.0,94,88,86,30.52,30.36,4,0,6,0.00
2014-12-5,33.5,30.1,27.7,31.0,27.9,26.0,95,90,88,30.65,30.52,7,1,8,0.03
2014-12-6,38.4,30.9,26.1,36.0,29.6,25.0,96,95,91,30.66,30.52,15,3,19,0.04
2014-12-7,40.6,35.0,28.9,36.0,32.1,27.0,95,89,77,30.77,30.66,9,2,12,0.01
2014-12-8,29.7,27.7,25.6,29.0,26.6,24.0,96,96,93,30.70,30.64,5,1,7,0.00
2014-12-9,31.4,26.7,25.3,31.0,25.7,24.0,97,93,95,30.68,30.51,0,0,0,0.01
2014-12-10,55.3,39.9,29.9,40.0,32.2,29.0,97,78,42,30.55,30.03,26,7,32,0.00
2014-12-11,55.8,45.7,37.4,37.0,33.0,29.0,85,62,36,30.08,29.88,21,6,29,0.00
2014-12-12,53.0,43.1,35.1,36.0,33.2,30.0,85,69,43,30.01,29.90,21,6,22,0.00
2014-12-13,44.9,37.7,34.7,36.0,31.0,25.0,92,77,62,30.51,30.00,32,8,41,0.09
2014-12-14,36.4,26.3,30.1,30.0,20.1,19.0,85,56,58,30.62,30.50,14,3,17,0.01
2014-12-15,35.3,28.1,24.0,25.0,21.2,18.0,88,76,61,30.64,30.51,10,2,15,0.00
2014-12-16,29.6,25.1,21.1,24.0,20.7,18.0,90,83,73,30.52,30.42,8,1,10,0.00
2014-12-17,35.9,30.2,27.0,26.0,24.4,22.0,86,79,68,30.45,30.35,7,1,9,0.00
2014-12-18,33.9,30.6,27.5,30.0,27.0,24.0,91,86,81,30.45,30.41,7,1,8,0.00
2014-12-19,38.3,32.5,28.5,34.0,30.0,27.0,95,90,82,30.43,30.31,12,2,17,0.02
2014-12-20,39.1,30.8,27.5,35.0,27.8,25.0,95,84,75,30.42,30.02,14,2,22,0.00
2014-12-21,44.8,38.8,34.9,37.0,34.0,31.0,93,83,58,30.24,29.88,33,11,33,0.20
2014-12-22,38.8,35.9,32.9,33.0,28.6,23.0,93,75,58,30.68,30.23,26,8,32,0.01
2014-12-23,37.5,32.4,28.2,26.0,22.2,21.0,76,65,52,30.77,30.39,11,2,15,0.00
2014-12-24,42.8,36.5,31.0,35.0,30.7,25.0,95,80,63,30.38,29.82,25,10,27,0.04
2014-12-25,31.4,25.4,26.7,30.0,23.8,25.0,95,81,87,30.48,29.99,19,7,23,0.01
2014-12-26,28.9,26.2,22.2,25.0,22.9,17.0,94,87,76,30.71,30.48,10,2,11,0.00
2014-12-27,31.7,24.8,22.3,25.0,18.7,16.0,92,69,64,30.70,30.31,24,6,38,0.00
2014-12-28,31.1,26.7,16.7,27.0,23.2,12.0,94,86,77,30.70,30.29,11,3,19,0.00
2014-12-29,17.2,10.2,2.0,12.0,-1.0,-9.0,82,61,51,31.32,30.71,29,7,34,0.00
2014-12-30,5.4,-0.9,-6.2,-5.0,-9.9,-13.0,83,66,52,31.51,31.33,7,2,13,0.00
2014-12-31,12.6,4.2,-0.3,0.0,-2.8,-5.0,83,73,57,31.39,31.07,7,2,8,0.00
2015-1-1,13.1,5.2,-1.8,3.0,-0.5,-5.0,87,77,64,31.07,30.91,6,1,7,0.00
2015-1-2,17.3,10.0,3.1,15.0,7.0,0.0,91,87,79,30.90,30.54,8,1,12,0.00